Home   Weather   Town of Fort Fairfield   Past weeks
Flag for USA

Past Weather in Town of Fort Fairfield, Maine, USA — Yesterday and Last 2 Weeks

Now
26 °F

Mostly cloudy.


Feels Like: 13 °F
Forecast: 23 / -3 °F
Wind: 17 mph from South

Location: Northern Maine Regional Airport

Current Time: Dec 8, 2019 at 6:54:07 pm

Latest Report: Dec 8, 2019 at 5:56 pm


Visibility: 10 mi

Pressure: 30.32 "Hg

Humidity: 57%

Dew Point: 13 °F

Location of Town of Fort FairfieldLocation

Past Weather in Town of Fort Fairfield — Graph

°F

Town of Fort Fairfield Temperature Yesterday

Maximum temperature yesterday: 24 °F (at 12:56 pm)
Minimum temperature yesterday: 3 °F (at 12:56 am)
Average temperature yesterday: 11 °F

High & Low Weather Summary for the Past Weeks

 TemperatureHumidityPressure
High40 °F (Nov 26, 7:56 pm)100% (Nov 24, 12:37 am)30.50 "Hg (Nov 24, 12:37 am)
Low-12 °F (Dec 2, 6:56 am)46% (Dec 1, 12:56 pm)29.23 "Hg (Dec 4, 12:31 am)
Average23 °F81%29.84 "Hg
* Reported Nov 23 4:56 pm — Dec 8 4:56 pm, Town of Fort Fairfield. Weather by CustomWeather, © 2019

Note: Actual official high and low records may vary slightly from our data, if they occured in-between our weather recording intervals... More about our weather records

Town of Fort Fairfield Weather History for the Previous 24 Hours

Scroll right to see more
 ConditionsComfort  
Time TempWeatherWind HumidityBarometerVisibility
4:56 pm
Sun, Dec 8
26 °FOvercast.14 mph60%30.34 "Hg10 mi
3:56 pm26 °FOvercast.8 mph63%30.34 "Hg10 mi
2:56 pm25 °FPartly sunny.12 mph66%30.36 "Hg10 mi
1:56 pm24 °FSunny.9 mph62%30.36 "Hg10 mi
12:56 pm25 °FSunny.6 mph63%30.38 "Hg10 mi
11:56 am24 °FSunny.9 mph62%30.42 "Hg10 mi
10:56 am24 °FSunny.5 mph62%30.47 "Hg10 mi
9:56 am16 °FSunny.No wind65%30.49 "Hg10 mi
8:56 am7 °FSunny.No wind83%30.50 "Hg10 mi
7:56 am-1 °FSunny.No wind79%30.50 "Hg10 mi
6:56 am-7 °FClear.No wind83%30.48 "Hg10 mi
5:56 am-3 °FOvercast.No wind82%30.45 "Hg10 mi
4:56 am-4 °FClear.No wind83%30.44 "Hg10 mi
3:56 am-4 °FPassing clouds.No wind86%30.43 "Hg10 mi
2:56 am-3 °FClear.No wind86%30.43 "Hg10 mi
1:56 am3 °FClear.3 mph84%30.42 "Hg10 mi
12:56 am6 °FPassing clouds.5 mph83%30.41 "Hg10 mi
11:56 pm
Sat, Dec 7
6 °FLight snow. Overcast.6 mph87%30.41 "Hg10 mi
10:56 pm4 °FPassing clouds.No wind88%30.40 "Hg10 mi
9:56 pm7 °FClear.7 mph83%30.38 "Hg10 mi
8:56 pm8 °FClear.6 mph79%30.37 "Hg10 mi
7:56 pm9 °FClear.5 mph84%30.37 "Hg10 mi
6:56 pm11 °FClear.6 mph77%30.35 "Hg10 mi
Weather by CustomWeather, © 2019

See weather overview

Advertising